This demonstration page uses our WeatherBlox Daily Observations layout. Learn more.

Left ArrowRight Arrow

41.55636, -103.73856

Hourly Observations for July 25, 2020

Temp ( °F °C ) Dew Point ( °F °C ) Humidity (%) Winds ( mph kmh ) Pressure ( in mb ) Visibility ( mi km ) Precip ( " mm )
6:58 pm 18:58 Mostly Clear 83 28.3 48 8.8 29 29 NE 6 9 29.84 1011 10 16 0.00 0.00
7:58 pm 19:58 Mostly Cloudy 82 27.6 49 9.4 32 32 ENE 5 7 29.83 1010 10 16 0.00 0.00
8:58 pm 20:58 Mostly Cloudy 77 25.1 50 10 39 39 E 7 11 29.84 1011 8 13 0.00 0.00
9:58 pm 21:58 Cloudy 77 25 49 9.3 37 37 SE 9 15 29.86 1011 10 16 0.00 0.00
10:58 pm 22:58 Mostly Cloudy 75 24.1 50 9.9 41 41 SE 13 20 29.87 1012 10 16 0.00 0.00
11:58 pm 23:58 Mostly Cloudy 73 22.9 52 11.1 47 47 SSW 5 7 29.88 1012 10 16 0.00 0.00
12:58 am 00:58 Mostly Cloudy 72 22.1 55 12.5 55 55 SW 7 11 29.88 1012 10 16 0.00 0.00
1:58 am 01:58 Mostly Cloudy 71 21.8 55 12.6 56 56 SSW 10 17 29.86 1011 10 16 0.00 0.00
2:58 am 02:58 Mostly Cloudy 72 22.4 54 12.3 53 53 WSW 6 9 29.86 1011 10 16 0.00 0.00
3:58 am 03:58 Mostly Cloudy 71 21.8 54 12.4 55 55 SW 6 9 29.85 1011 10 16 0.00 0.00
4:58 am 04:58 Mostly Clear 69 20.7 54 12.3 59 59 SW 8 13 29.86 1011 10 16 0.00 0.00
5:58 am 05:58 Mostly Cloudy 69 20.4 54 12.4 60 60 SW 8 13 29.88 1012 10 16 0.00 0.00
6:58 am 06:58 Sunny 72 22.2 55 12.5 54 54 WSW 6 9 29.88 1012 10 16 0.00 0.00
7:58 am 07:58 Mostly Cloudy 77 25.1 53 11.5 43 43 W 6 9 29.88 1012 10 16 0.00 0.00
8:58 am 08:58 Mostly Sunny 80 26.5 46 7.7 30 30 NW 10 17 29.88 1012 10 16 0.00 0.00
9:58 am 09:58 Sunny 83 28.2 45 7.1 26 26 NW 12 19 29.88 1012 10 16 0.00 0.00
10:58 am 10:58 Mostly Cloudy 86 29.8 44 6.8 23 23 NNW 9 15 29.88 1012 10 16 0.00 0.00
11:58 am 11:58 Sunny 89 31.4 41 5.2 19 19 WNW 8 13 29.88 1012 10 16 0.00 0.00
12:58 pm 12:58 Mostly Sunny 91 32.9 42 5.8 18 18 NNW 13 20 29.87 1011 10 16 0.00 0.00
1:58 pm 13:58 Partly Cloudy 89 31.6 37 2.7 16 16 NNE 13 20 29.88 1012 10 16 0.00 0.00
2:58 pm 14:58 Sunny 91 32.9 37 2.6 15 15 N 12 19 29.85 1011 10 16 0.00 0.00
3:58 pm 15:58 Partly Cloudy 90 32.4 36 2.2 15 15 NNE 13 20 29.85 1011 10 16 0.00 0.00
4:58 pm 16:58 Mostly Sunny 92 33.4 35 1.9 13 13 NNW 15 24 29.86 1011 10 16 0.00 0.00
5:58 pm 17:58 Mostly Sunny 87 30.8 35 1.6 15 15 NNW 14 22 29.86 1011 10 16 0.00 0.00

Powered by AerisWeather